Orr, MN

6:04 AM CST on January 18, 2018 (GMT -0600)
Orr Regional

Weather History for KORB - May, 2013

Change the Weather History Date:

Saturday, May 11, 2013

  Actual Average Record
Temperature  
Mean Temperature 36 °F -  
Max Temperature 41 °F 59 °F 80 °F (2011)
Min Temperature 32 °F 35 °F 30 °F (2002)
Degree Days  
Heating Degree Days 28    
Moisture  
Dew Point 25 °F    
Average Humidity 65    
Maximum Humidity 81    
Minimum Humidity 45    
Precipitation  
Precipitation 0.02 in - - ()
Sea Level Pressure  
Sea Level Pressure 30.03 in    
Wind  
Wind Speed 10 mph (NW)    
Max Wind Speed 22 mph    
Max Gust Speed 33 mph    
Visibility 9 miles    
Events Snow    
Averages and records for this station are not official NWS values.
T = Trace of Precipitation, MM = Missing Value Source: NWS Daily Summary

Daily Weather History Graph

Daily Weather History Graph

Search for Another Location

Airport or City:

Trip Planner

Search our weather history database for the weather conditions in past years. The results will help you decide how hot, cold, wet, or windy it might be!

Date:

Astronomy

May. 11, 2013 Rise Set
Actual Time 5:37 AM CDT 8:38 PM CDT
Civil Twilight 5:01 AM CDT 9:15 PM CDT
Nautical Twilight 4:14 AM CDT 10:02 PM CDT
Astronomical Twilight 3:16 AM CDT 11:01 PM CDT
Moon 6:43 AM CDT (5/11) 10:22 PM CDT (5/11)
Length of Visible Light 16h 14m
Length of Day
15h 01m
Waxing Crescent, 3% of the Moon is Illuminated
May 11
Waxing Crescent
May 17
First Quarter
May 24
Full
May 31
Last Quarter
Jun 8
New

Hourly Weather History & Observations

Time (CDT) Temp. Windchill Dew Point Humidity Pressure Visibility Wind Dir Wind Speed Gust Speed Precip Events Conditions
12:13 AM 35.6 °F 29.2 °F 30.2 °F 81% 29.95 in 10.0 mi NW 8.1 mph - N/A   Overcast
12:33 AM 35.6 °F 29.2 °F 30.2 °F 81% 29.95 in 10.0 mi NW 8.1 mph - N/A   Overcast
12:53 AM 35.6 °F 28.6 °F 30.2 °F 81% 29.95 in 10.0 mi NW 9.2 mph - N/A   Overcast
1:13 AM 35.6 °F 29.2 °F 28.4 °F 75% 29.95 in 10.0 mi NW 8.1 mph - N/A   Overcast
1:33 AM 35.6 °F 29.9 °F 28.4 °F 75% 29.95 in 10.0 mi NW 6.9 mph - N/A   Overcast
1:53 AM 35.6 °F 30.7 °F 28.4 °F 75% 29.95 in 10.0 mi NW 5.8 mph - N/A   Overcast
2:13 AM 35.6 °F 31.7 °F 28.4 °F 75% 29.95 in 10.0 mi NW 4.6 mph - N/A   Mostly Cloudy
2:33 AM 35.6 °F 30.7 °F 28.4 °F 75% 29.95 in 10.0 mi NW 5.8 mph - N/A   Overcast
2:53 AM 35.6 °F 29.9 °F 28.4 °F 75% 29.95 in 10.0 mi NW 6.9 mph - N/A   Overcast
3:13 AM 35.6 °F 29.2 °F 28.4 °F 75% 29.95 in 10.0 mi NW 8.1 mph - N/A   Overcast
3:33 AM 35.6 °F 29.2 °F 28.4 °F 75% 29.95 in 10.0 mi NW 8.1 mph - N/A   Overcast
3:53 AM 35.6 °F 29.9 °F 28.4 °F 75% 29.95 in 10.0 mi WNW 6.9 mph - N/A   Overcast
4:13 AM 35.6 °F 28.0 °F 28.4 °F 75% 29.95 in 10.0 mi WNW 10.4 mph - N/A   Overcast
4:33 AM 33.8 °F 25.3 °F 28.4 °F 81% 29.96 in 10.0 mi WNW 11.5 mph - N/A   Overcast
4:53 AM 33.8 °F 24.3 °F 28.4 °F 81% 29.96 in 10.0 mi WNW 13.8 mph 19.6 mph N/A   Overcast
5:33 AM 33.8 °F 24.8 °F 26.6 °F 75% 29.97 in 10.0 mi WNW 12.7 mph - N/A   Overcast
5:53 AM 32.0 °F 22.5 °F 26.6 °F 80% 29.97 in 10.0 mi NW 12.7 mph 16.1 mph N/A   Overcast
6:13 AM 32.0 °F 23.6 °F 26.6 °F 80% 29.97 in 10.0 mi WNW 10.4 mph 20.7 mph N/A   Overcast
6:33 AM 33.8 °F 25.8 °F 26.6 °F 75% 29.97 in 10.0 mi WNW 10.4 mph 17.3 mph N/A   Overcast
6:53 AM 33.8 °F 25.8 °F 26.6 °F 75% 29.97 in 10.0 mi WNW 10.4 mph 17.3 mph N/A   Overcast
7:13 AM 33.8 °F 25.3 °F 26.6 °F 75% 29.98 in 10.0 mi NW 11.5 mph 18.4 mph N/A   Overcast
7:33 AM 33.8 °F 24.3 °F 26.6 °F 75% 29.98 in 10.0 mi NW 13.8 mph 18.4 mph N/A   Overcast
7:53 AM 33.8 °F 24.8 °F 26.6 °F 75% 29.98 in 10.0 mi NW 12.7 mph - N/A   Mostly Cloudy
8:13 AM 33.8 °F 25.3 °F 26.6 °F 75% 29.98 in 10.0 mi WNW 11.5 mph 21.9 mph N/A   Overcast
8:33 AM 33.8 °F 23.9 °F 26.6 °F 75% 29.98 in 10.0 mi WNW 15.0 mph - N/A   Overcast
8:53 AM 33.8 °F 25.3 °F 26.6 °F 75% 29.98 in 10.0 mi WNW 11.5 mph 18.4 mph N/A   Overcast
9:13 AM 33.8 °F 25.3 °F 26.6 °F 75% 29.98 in 7.0 mi NW 11.5 mph 20.7 mph N/A Snow Light Snow
9:34 AM 33.8 °F 23.9 °F 28.4 °F 81% 29.99 in 3.0 mi NW 15.0 mph 25.3 mph N/A Snow Light Snow
9:53 AM 33.8 °F 25.8 °F 28.4 °F 81% 29.99 in 3.0 mi NW 10.4 mph 19.6 mph 0.01 in Snow Light Snow
10:13 AM 35.6 °F 25.9 °F 26.6 °F 70% 29.98 in 10.0 mi NW 16.1 mph 20.7 mph N/A   Overcast
10:33 AM 35.6 °F 25.9 °F 28.4 °F 75% 29.99 in 3.0 mi NW 16.1 mph 25.3 mph N/A Snow Light Snow
10:53 AM 37.4 °F 28.2 °F 30.2 °F 75% 29.99 in 10.0 mi NW 16.1 mph 23.0 mph N/A   Overcast
11:13 AM 39.2 °F 30.8 °F 26.6 °F 61% 29.99 in 10.0 mi NW 15.0 mph 24.2 mph N/A   Mostly Cloudy
11:33 AM 37.4 °F 26.6 °F 26.6 °F 65% 30.00 in 10.0 mi NW 21.9 mph 29.9 mph N/A   Mostly Cloudy
11:53 AM 39.2 °F 30.2 °F 26.6 °F 61% 29.99 in 10.0 mi NW 17.3 mph 24.2 mph N/A   Scattered Clouds
12:13 PM 37.4 °F 28.5 °F 26.6 °F 65% 30.01 in 10.0 mi NW 15.0 mph 24.2 mph N/A   Scattered Clouds
12:33 PM 39.2 °F 29.6 °F 26.6 °F 61% 30.01 in 10.0 mi NW 19.6 mph 32.2 mph N/A   Scattered Clouds
12:53 PM 41.0 °F 32.8 °F 24.8 °F 53% 30.01 in 10.0 mi NNW 16.1 mph 25.3 mph N/A   Scattered Clouds
1:14 PM 35.6 °F 25.9 °F 26.6 °F 70% 30.02 in 2.5 mi NW 16.1 mph 28.8 mph 0.01 in   Mostly Cloudy
1:33 PM 39.2 °F 32.0 °F 26.6 °F 61% 30.02 in 10.0 mi NW 11.5 mph 23.0 mph 0.01 in   Unknown
1:54 PM 37.4 °F 27.5 °F 30.2 °F 75% 30.03 in 7.0 mi NW 18.4 mph 26.5 mph 0.01 in   Scattered Clouds
2:13 PM 37.4 °F 27.5 °F 28.4 °F 70% 30.05 in 2.5 mi NW 18.4 mph 33.4 mph N/A   Scattered Clouds
2:33 PM 39.2 °F 32.0 °F 30.2 °F 70% 30.04 in 10.0 mi NW 11.5 mph 21.9 mph N/A   Scattered Clouds
2:53 PM 39.2 °F 32.5 °F 28.4 °F 65% 30.04 in 10.0 mi NW 10.4 mph 16.1 mph N/A   Scattered Clouds
3:13 PM 39.2 °F 32.0 °F 21.2 °F 49% 30.05 in 10.0 mi NW 11.5 mph 29.9 mph N/A   Scattered Clouds
3:33 PM 39.2 °F 29.3 °F 23.0 °F 52% 30.05 in 10.0 mi NW 20.7 mph 26.5 mph N/A   Scattered Clouds
3:53 PM 41.0 °F 34.3 °F 26.6 °F 57% 30.05 in 10.0 mi NW 11.5 mph 26.5 mph N/A   Scattered Clouds
4:13 PM 41.0 °F 32.5 °F 21.2 °F 45% 30.05 in 10.0 mi NW 17.3 mph 27.6 mph N/A   Mostly Cloudy
4:33 PM 39.2 °F 33.0 °F 21.2 °F 49% 30.06 in 10.0 mi NW 9.2 mph 23.0 mph N/A   Mostly Cloudy
4:53 PM 39.2 °F 31.6 °F 21.2 °F 49% 30.07 in 10.0 mi NW 12.7 mph 20.7 mph N/A   Mostly Cloudy
5:13 PM 41.0 °F 33.5 °F 21.2 °F 45% 30.07 in 10.0 mi NW 13.8 mph 23.0 mph N/A   Mostly Cloudy
5:33 PM 39.2 °F 33.0 °F 19.4 °F 45% 30.08 in 10.0 mi NNW 9.2 mph 20.7 mph N/A   Mostly Cloudy
5:53 PM 39.2 °F 32.5 °F 23.0 °F 52% 30.09 in 10.0 mi NW 10.4 mph 20.7 mph N/A   Mostly Cloudy
6:13 PM 39.2 °F 32.5 °F 23.0 °F 52% 30.09 in 10.0 mi NNW 10.4 mph 16.1 mph N/A   Mostly Cloudy
6:33 PM 39.2 °F 33.0 °F 21.2 °F 49% 30.10 in 10.0 mi NW 9.2 mph - N/A   Mostly Cloudy
6:53 PM 39.2 °F 32.0 °F 21.2 °F 49% 30.10 in 10.0 mi NW 11.5 mph 16.1 mph N/A   Overcast
7:13 PM 37.4 °F 30.8 °F 21.2 °F 52% 30.11 in 10.0 mi NW 9.2 mph 19.6 mph N/A   Overcast
7:33 PM 37.4 °F 31.4 °F 21.2 °F 52% 30.11 in 10.0 mi NW 8.1 mph - N/A   Overcast
7:53 PM 37.4 °F 32.1 °F 21.2 °F 52% 30.12 in 10.0 mi North 6.9 mph - N/A   Overcast
8:13 PM 37.4 °F 32.8 °F 23.0 °F 56% 30.12 in 10.0 mi NW 5.8 mph - N/A   Overcast
8:33 PM 35.6 °F 30.7 °F 21.2 °F 56% 30.12 in 10.0 mi NW 5.8 mph - N/A   Overcast
8:53 PM 35.6 °F 31.7 °F 21.2 °F 56% 30.13 in 10.0 mi NNW 4.6 mph - N/A   Overcast
9:13 PM 35.6 °F 31.7 °F 19.4 °F 52% 30.13 in 10.0 mi NW 4.6 mph - N/A   Overcast
9:33 PM 35.6 °F 31.7 °F 19.4 °F 52% 30.13 in 10.0 mi NNW 4.6 mph - N/A   Mostly Cloudy
9:53 PM 35.6 °F 31.7 °F 19.4 °F 52% 30.14 in 10.0 mi NNW 4.6 mph - N/A   Overcast
10:13 PM 35.6 °F - 19.4 °F 52% 30.13 in 10.0 mi Calm Calm - N/A   Overcast
10:33 PM 33.8 °F 30.8 °F 19.4 °F 56% 30.13 in 10.0 mi NW 3.5 mph - N/A   Overcast
10:53 PM 33.8 °F - 19.4 °F 56% 30.13 in 10.0 mi Calm Calm - N/A   Overcast
11:13 PM 33.8 °F 30.8 °F 19.4 °F 56% 30.13 in 10.0 mi NW 3.5 mph - N/A   Mostly Cloudy
11:33 PM 33.8 °F - 19.4 °F 56% 30.13 in 10.0 mi Calm Calm - N/A   Mostly Cloudy
11:53 PM 33.8 °F - 19.4 °F 56% 30.13 in 10.0 mi Calm Calm - N/A   Mostly Cloudy